Time,TemperatureF,DewpointF,PressureIn,WindDirection,WindDirectionDegrees,WindSpeedMPH,WindSpeedGustMPH,Humidity,HourlyPrecipIn,Conditions,Clouds,dailyrainin,SoftwareType,DateUTC
2013-06-22 00:01:00,66.0,64.5,30.13,NNW,340,0.0,1.0,95,0.00,,CLR,0.00,VWS V14.00,2013-06-22 04:01:00,
2013-06-22 00:06:00,65.8,64.3,30.13,NNW,341,0.0,1.0,95,0.00,,CLR,0.00,VWS V14.00,2013-06-22 04:06:00,
2013-06-22 00:11:00,65.7,63.9,30.13,NNW,340,0.0,1.0,94,0.00,,CLR,0.00,VWS V14.00,2013-06-22 04:11:00,
2013-06-22 00:16:00,65.5,64.0,30.13,NNW,340,0.0,1.0,95,0.00,,CLR,0.00,VWS V14.00,2013-06-22 04:16:00,
2013-06-22 00:21:00,65.4,63.9,30.13,NNW,340,0.0,1.0,95,0.00,,CLR,0.00,VWS V14.00,2013-06-22 04:21:00,
2013-06-22 00:26:00,65.3,63.8,30.13,NNW,341,0.0,1.0,95,0.00,,CLR,0.00,VWS V14.00,2013-06-22 04:26:00,
2013-06-22 00:31:00,65.1,63.6,30.13,NNW,341,0.0,1.0,95,0.00,,CLR,0.00,VWS V14.00,2013-06-22 04:31:00,
2013-06-22 00:36:00,65.0,63.5,30.13,NNW,340,0.0,1.0,95,0.00,,CLR,0.00,VWS V14.00,2013-06-22 04:36:00,
2013-06-22 00:41:00,65.0,63.5,30.13,NNW,341,0.0,1.0,95,0.00,,CLR,0.00,VWS V14.00,2013-06-22 04:41:00,
2013-06-22 00:46:00,64.9,63.4,30.13,NNW,341,0.0,1.0,95,0.00,,CLR,0.00,VWS V14.00,2013-06-22 04:46:00,
2013-06-22 00:51:00,64.8,63.3,30.13,NNW,341,0.0,1.0,95,0.00,,CLR,0.00,VWS V14.00,2013-06-22 04:51:00,
2013-06-22 00:56:00,64.7,63.2,30.13,NNW,340,0.0,1.0,95,0.00,,CLR,0.00,VWS V14.00,2013-06-22 04:56:00,
2013-06-22 01:01:00,64.6,63.1,30.12,NNW,341,0.0,0.0,95,0.00,,CLR,0.00,VWS V14.00,2013-06-22 05:01:00,
2013-06-22 01:06:00,64.6,63.1,30.12,NNW,341,0.0,1.0,95,0.00,,CLR,0.00,VWS V14.00,2013-06-22 05:06:00,
2013-06-22 01:11:00,64.5,63.0,30.12,NNW,340,0.0,1.0,95,0.00,,CLR,0.00,VWS V14.00,2013-06-22 05:11:00,
2013-06-22 01:16:00,64.4,62.9,30.11,NNW,340,0.0,1.0,95,0.00,,CLR,0.00,VWS V14.00,2013-06-22 05:16:00,
2013-06-22 01:21:00,64.3,62.8,30.11,NNW,341,0.0,1.0,95,0.00,,CLR,0.00,VWS V14.00,2013-06-22 05:21:00,
2013-06-22 01:26:00,64.3,62.8,30.11,NNW,341,0.0,1.0,95,0.00,,CLR,0.00,VWS V14.00,2013-06-22 05:26:00,
2013-06-22 01:31:00,64.1,62.6,30.11,NNW,340,0.0,0.0,95,0.00,,CLR,0.00,VWS V14.00,2013-06-22 05:31:00,
2013-06-22 01:36:00,64.0,62.5,30.11,NNW,341,0.0,1.0,95,0.00,,CLR,0.00,VWS V14.00,2013-06-22 05:36:00,
2013-06-22 01:41:00,63.9,62.4,30.11,NNW,341,0.0,1.0,95,0.00,,CLR,0.00,VWS V14.00,2013-06-22 05:41:00,
2013-06-22 01:46:00,63.8,62.3,30.11,NNW,341,0.0,1.0,95,0.00,,CLR,0.00,VWS V14.00,2013-06-22 05:46:00,
2013-06-22 01:51:00,63.9,62.4,30.11,NNW,340,0.0,1.0,95,0.00,,CLR,0.00,VWS V14.00,2013-06-22 05:51:00,
2013-06-22 01:56:00,63.8,62.3,30.11,NNW,340,0.0,1.0,95,0.00,,CLR,0.00,VWS V14.00,2013-06-22 05:56:00,
2013-06-22 02:01:00,63.6,62.2,30.11,NNW,340,0.0,1.0,95,0.00,,CLR,0.00,VWS V14.00,2013-06-22 06:01:00,
2013-06-22 02:06:00,63.6,62.2,30.11,NNW,341,0.0,1.0,95,0.00,,CLR,0.00,VWS V14.00,2013-06-22 06:06:00,
2013-06-22 02:11:00,63.5,62.0,30.11,NNW,341,0.0,1.0,95,0.00,,CLR,0.00,VWS V14.00,2013-06-22 06:11:00,
2013-06-22 02:16:00,63.4,62.0,30.11,NNW,341,0.0,1.0,95,0.00,,CLR,0.00,VWS V14.00,2013-06-22 06:16:00,
2013-06-22 02:21:00,63.3,61.8,30.11,NNW,341,0.0,1.0,95,0.00,,CLR,0.00,VWS V14.00,2013-06-22 06:21:00,
2013-06-22 02:26:00,63.2,61.8,30.11,NNW,340,0.0,1.0,95,0.00,,CLR,0.00,VWS V14.00,2013-06-22 06:26:00,
2013-06-22 02:31:00,63.0,61.5,30.11,NNW,341,0.0,0.0,95,0.00,,CLR,0.00,VWS V14.00,2013-06-22 06:31:00,
2013-06-22 02:36:00,62.9,61.5,30.11,NNW,340,0.0,0.0,95,0.00,,CLR,0.00,VWS V14.00,2013-06-22 06:36:00,
2013-06-22 02:41:00,62.9,61.5,30.11,NNW,341,0.0,0.0,95,0.00,,CLR,0.00,VWS V14.00,2013-06-22 06:41:00,
2013-06-22 02:46:00,62.9,61.5,30.11,NNW,341,0.0,0.0,95,0.00,,CLR,0.00,VWS V14.00,2013-06-22 06:46:00,
2013-06-22 02:51:00,63.0,61.5,30.11,NNW,340,0.0,0.0,95,0.00,,CLR,0.00,VWS V14.00,2013-06-22 06:51:00,
2013-06-22 02:56:00,63.0,61.5,30.11,NNW,341,0.0,0.0,95,0.00,,CLR,0.00,VWS V14.00,2013-06-22 06:56:00,
2013-06-22 03:01:00,63.0,61.5,30.11,NNW,341,0.0,0.0,95,0.00,,CLR,0.00,VWS V14.00,2013-06-22 07:01:00,
2013-06-22 03:06:00,62.9,61.5,30.11,NNW,340,0.0,0.0,95,0.00,,CLR,0.00,VWS V14.00,2013-06-22 07:06:00,
2013-06-22 03:11:00,62.7,61.2,30.11,NNW,341,0.0,0.0,95,0.00,,CLR,0.00,VWS V14.00,2013-06-22 07:11:00,
2013-06-22 03:16:00,62.7,61.2,30.11,NNW,341,0.0,0.0,95,0.00,,CLR,0.00,VWS V14.00,2013-06-22 07:16:00,
2013-06-22 03:21:00,62.6,61.2,30.11,NNW,341,0.0,0.0,95,0.00,,CLR,0.00,VWS V14.00,2013-06-22 07:21:00,
2013-06-22 03:26:00,62.4,61.0,30.11,NNW,341,0.0,0.0,95,0.00,,CLR,0.00,VWS V14.00,2013-06-22 07:26:00,
2013-06-22 03:31:00,62.3,60.8,30.11,NNW,341,0.0,0.0,95,0.00,,CLR,0.00,VWS V14.00,2013-06-22 07:31:00,
2013-06-22 03:36:00,62.2,60.8,30.11,NNW,340,0.0,0.0,95,0.00,,CLR,0.00,VWS V14.00,2013-06-22 07:36:00,
2013-06-22 03:41:00,62.1,61.0,30.11,NNW,341,0.0,0.0,96,0.00,,CLR,0.00,VWS V14.00,2013-06-22 07:41:00,
2013-06-22 03:46:00,62.0,60.8,30.11,NNW,340,0.0,0.0,96,0.00,,CLR,0.00,VWS V14.00,2013-06-22 07:46:00,
2013-06-22 03:51:00,62.0,60.8,30.11,NNW,341,0.0,0.0,96,0.00,,CLR,0.00,VWS V14.00,2013-06-22 07:51:00,
2013-06-22 03:56:00,61.9,60.8,30.11,NNW,340,0.0,0.0,96,0.00,,CLR,0.00,VWS V14.00,2013-06-22 07:56:00,
2013-06-22 04:01:00,61.8,60.4,30.11,NNW,340,0.0,0.0,95,0.00,,CLR,0.00,VWS V14.00,2013-06-22 08:01:00,
2013-06-22 04:06:00,61.6,60.2,30.11,NNW,340,0.0,0.0,95,0.00,,CLR,0.00,VWS V14.00,2013-06-22 08:06:00,
2013-06-22 04:11:00,61.4,60.2,30.11,NNW,341,0.0,0.0,96,0.00,,CLR,0.00,VWS V14.00,2013-06-22 08:11:00,
2013-06-22 04:16:00,61.4,60.2,30.10,NNW,341,0.0,1.0,96,0.00,,CLR,0.00,VWS V14.00,2013-06-22 08:16:00,
2013-06-22 04:21:00,61.2,59.8,30.10,NNW,341,0.0,1.0,95,0.00,,CLR,0.00,VWS V14.00,2013-06-22 08:21:00,
2013-06-22 04:26:00,61.0,59.6,30.10,NNW,341,0.0,1.0,95,0.00,,CLR,0.00,VWS V14.00,2013-06-22 08:26:00,
2013-06-22 04:31:00,60.8,59.7,30.10,NNW,341,0.0,1.0,96,0.00,,CLR,0.00,VWS V14.00,2013-06-22 08:31:00,
2013-06-22 04:36:00,60.8,59.7,30.10,NNW,340,0.0,1.0,96,0.00,,CLR,0.00,VWS V14.00,2013-06-22 08:36:00,
2013-06-22 04:41:00,60.7,59.6,30.10,NNW,340,0.0,1.0,96,0.00,,CLR,0.00,VWS V14.00,2013-06-22 08:41:00,
2013-06-22 04:46:00,60.7,59.6,30.10,NNW,340,0.0,1.0,96,0.00,,CLR,0.00,VWS V14.00,2013-06-22 08:46:00,
2013-06-22 04:51:00,60.7,59.6,30.10,NNW,341,0.0,1.0,96,0.00,,CLR,0.00,VWS V14.00,2013-06-22 08:51:00,
2013-06-22 04:56:00,60.8,59.7,30.10,NNW,341,0.0,1.0,96,0.00,,CLR,0.00,VWS V14.00,2013-06-22 08:56:00,
2013-06-22 05:01:00,60.7,59.6,30.10,NNW,341,0.0,0.0,96,0.00,,CLR,0.00,VWS V14.00,2013-06-22 09:01:00,
2013-06-22 05:06:00,60.7,59.6,30.10,NNW,341,0.0,1.0,96,0.00,,CLR,0.00,VWS V14.00,2013-06-22 09:06:00,
2013-06-22 05:11:00,60.7,59.6,30.10,NNW,340,0.0,1.0,96,0.00,,CLR,0.00,VWS V14.00,2013-06-22 09:11:00,
2013-06-22 05:16:00,60.7,59.6,30.11,NNW,340,0.0,1.0,96,0.00,,CLR,0.00,VWS V14.00,2013-06-22 09:16:00,
2013-06-22 05:21:00,60.8,59.7,30.11,NNW,340,0.0,1.0,96,0.00,,CLR,0.00,VWS V14.00,2013-06-22 09:21:00,
2013-06-22 05:26:00,60.7,59.3,30.11,NNW,341,0.0,1.0,95,0.00,,CLR,0.00,VWS V14.00,2013-06-22 09:26:00,
2013-06-22 05:31:00,60.7,59.6,30.11,NNW,341,0.0,0.0,96,0.00,,CLR,0.00,VWS V14.00,2013-06-22 09:31:00,
2013-06-22 05:36:00,60.8,59.7,30.11,NNW,340,0.0,0.0,96,0.00,,CLR,0.00,VWS V14.00,2013-06-22 09:36:00,
2013-06-22 05:41:00,60.8,59.4,30.11,NNW,340,0.0,1.0,95,0.00,,CLR,0.00,VWS V14.00,2013-06-22 09:41:00,
2013-06-22 05:46:00,60.7,59.3,30.11,NNW,341,0.0,1.0,95,0.00,,CLR,0.00,VWS V14.00,2013-06-22 09:46:00,
2013-06-22 05:51:00,60.7,59.3,30.11,NNW,341,0.0,1.0,95,0.00,,CLR,0.00,VWS V14.00,2013-06-22 09:51:00,
2013-06-22 05:56:00,60.6,59.2,30.11,NNW,341,0.0,1.0,95,0.00,,CLR,0.00,VWS V14.00,2013-06-22 09:56:00,
2013-06-22 06:01:00,60.5,59.1,30.12,NNW,340,0.0,1.0,95,0.00,,CLR,0.00,VWS V14.00,2013-06-22 10:01:00,
2013-06-22 06:06:00,60.4,59.0,30.12,NNW,340,0.0,1.0,95,0.00,,CLR,0.00,VWS V14.00,2013-06-22 10:06:00,
2013-06-22 06:11:00,60.4,59.0,30.12,NNW,341,0.0,1.0,95,0.00,,CLR,0.00,VWS V14.00,2013-06-22 10:11:00,
2013-06-22 06:16:00,60.5,59.1,30.12,NNW,341,0.0,1.0,95,0.00,,CLR,0.00,VWS V14.00,2013-06-22 10:16:00,
2013-06-22 06:21:00,60.4,59.0,30.12,NNW,340,0.0,1.0,95,0.00,,CLR,0.00,VWS V14.00,2013-06-22 10:21:00,
2013-06-22 06:26:00,60.3,58.9,30.12,NNW,340,0.0,1.0,95,0.00,,CLR,0.00,VWS V14.00,2013-06-22 10:26:00,
2013-06-22 06:31:00,60.3,58.9,30.13,NNW,341,0.0,0.0,95,0.00,,CLR,0.00,VWS V14.00,2013-06-22 10:31:00,
2013-06-22 06:36:00,60.3,58.9,30.13,NNW,341,0.0,0.0,95,0.00,,CLR,0.00,VWS V14.00,2013-06-22 10:36:00,
2013-06-22 06:41:00,60.3,58.9,30.13,NNW,341,0.0,0.0,95,0.00,,CLR,0.00,VWS V14.00,2013-06-22 10:41:00,
2013-06-22 06:46:00,60.4,59.0,30.13,NNW,341,0.0,1.0,95,0.00,,CLR,0.00,VWS V14.00,2013-06-22 10:46:00,
2013-06-22 06:51:00,60.4,59.0,30.13,NNW,341,0.0,1.0,95,0.00,,CLR,0.00,VWS V14.00,2013-06-22 10:51:00,
2013-06-22 06:56:00,60.5,58.8,30.13,NNW,340,0.0,1.0,94,0.00,,CLR,0.00,VWS V14.00,2013-06-22 10:56:00,
2013-06-22 07:01:00,60.6,58.9,30.13,NNW,340,0.0,1.0,94,0.00,,CLR,0.00,VWS V14.00,2013-06-22 11:01:00,
2013-06-22 07:06:00,60.7,59.0,30.13,NW,310,0.0,1.0,94,0.00,,CLR,0.00,VWS V14.00,2013-06-22 11:06:00,
2013-06-22 07:11:00,60.9,59.2,30.13,WNW,291,0.0,1.0,94,0.00,,CLR,0.00,VWS V14.00,2013-06-22 11:11:00,
2013-06-22 07:16:00,61.0,59.3,30.14,WNW,291,0.0,1.0,94,0.00,,CLR,0.00,VWS V14.00,2013-06-22 11:16:00,
2013-06-22 07:21:00,61.0,59.3,30.14,WNW,290,0.0,1.0,94,0.00,,CLR,0.00,VWS V14.00,2013-06-22 11:21:00,
2013-06-22 07:26:00,61.1,59.4,30.14,WNW,292,0.0,1.0,94,0.00,,CLR,0.00,VWS V14.00,2013-06-22 11:26:00,
2013-06-22 07:31:00,61.4,59.7,30.14,WNW,295,1.0,1.0,94,0.00,,CLR,0.00,VWS V14.00,2013-06-22 11:31:00,
2013-06-22 07:36:00,61.9,60.2,30.14,WNW,297,0.0,1.0,94,0.00,,CLR,0.00,VWS V14.00,2013-06-22 11:36:00,
2013-06-22 07:41:00,62.2,60.5,30.14,WNW,297,0.0,1.0,94,0.00,,CLR,0.00,VWS V14.00,2013-06-22 11:41:00,
2013-06-22 07:46:00,62.7,60.7,30.14,WNW,297,0.0,1.0,93,0.00,,CLR,0.00,VWS V14.00,2013-06-22 11:46:00,
2013-06-22 07:51:00,63.2,60.8,30.14,WNW,297,1.0,1.0,92,0.00,,CLR,0.00,VWS V14.00,2013-06-22 11:51:00,
2013-06-22 07:56:00,63.5,61.1,30.14,WNW,297,0.0,1.0,92,0.00,,CLR,0.00,VWS V14.00,2013-06-22 11:56:00,
2013-06-22 08:01:00,64.2,61.8,30.14,WNW,297,1.0,1.0,92,0.00,,CLR,0.00,VWS V14.00,2013-06-22 12:01:00,
2013-06-22 08:06:00,64.9,62.5,30.14,NNW,330,0.0,1.0,92,0.00,,CLR,0.00,VWS V14.00,2013-06-22 12:06:00,
2013-06-22 08:11:00,65.7,63.0,30.14,NNW,333,0.0,1.0,91,0.00,,CLR,0.00,VWS V14.00,2013-06-22 12:11:00,
2013-06-22 08:16:00,66.5,63.5,30.14,North,349,0.0,1.0,90,0.00,,CLR,0.00,VWS V14.00,2013-06-22 12:16:00,
2013-06-22 08:21:00,67.2,63.8,30.14,North,4,0.0,4.0,89,0.00,,CLR,0.00,VWS V14.00,2013-06-22 12:21:00,
2013-06-22 08:26:00,67.8,64.1,30.14,North,349,2.0,4.0,88,0.00,,CLR,0.00,VWS V14.00,2013-06-22 12:26:00,
2013-06-22 08:31:00,68.4,64.1,30.13,North,1,0.0,4.0,86,0.00,,CLR,0.00,VWS V14.00,2013-06-22 12:31:00,
2013-06-22 08:36:00,69.0,64.6,30.13,ENE,76,0.0,5.0,86,0.00,,CLR,0.00,VWS V14.00,2013-06-22 12:36:00,
2013-06-22 08:41:00,69.7,64.7,30.13,NNE,14,0.0,5.0,84,0.00,,CLR,0.00,VWS V14.00,2013-06-22 12:41:00,
2013-06-22 08:46:00,70.2,65.1,30.13,North,350,0.0,5.0,84,0.00,,CLR,0.00,VWS V14.00,2013-06-22 12:46:00,
2013-06-22 08:51:00,70.8,66.4,30.13,North,352,0.0,5.0,86,0.00,,CLR,0.00,VWS V14.00,2013-06-22 12:51:00,
2013-06-22 08:56:00,71.3,66.2,30.13,SE,139,0.0,5.0,84,0.00,,CLR,0.00,VWS V14.00,2013-06-22 12:56:00,
2013-06-22 09:01:00,71.9,67.2,30.13,NNE,28,0.0,1.0,85,0.00,,CLR,0.00,VWS V14.00,2013-06-22 13:01:00,
2013-06-22 09:06:00,72.2,66.4,30.13,North,10,0.0,1.0,82,0.00,,CLR,0.00,VWS V14.00,2013-06-22 13:06:00,
2013-06-22 09:11:00,72.4,66.9,30.13,NE,52,3.0,3.0,83,0.00,,CLR,0.00,VWS V14.00,2013-06-22 13:11:00,
2013-06-22 09:16:00,72.8,67.0,30.14,North,358,0.0,3.0,82,0.00,,CLR,0.00,VWS V14.00,2013-06-22 13:16:00,
2013-06-22 09:21:00,73.1,67.3,30.14,North,8,0.0,3.0,82,0.00,,CLR,0.00,VWS V14.00,2013-06-22 13:21:00,
2013-06-22 09:26:00,73.3,67.1,30.14,NW,315,1.0,3.0,81,0.00,,CLR,0.00,VWS V14.00,2013-06-22 13:26:00,
2013-06-22 09:31:00,73.5,67.3,30.14,North,5,0.0,1.0,81,0.00,,CLR,0.00,VWS V14.00,2013-06-22 13:31:00,
2013-06-22 09:36:00,73.6,67.4,30.14,North,11,0.0,3.0,81,0.00,,CLR,0.00,VWS V14.00,2013-06-22 13:36:00,
2013-06-22 09:41:00,73.7,68.2,30.14,North,359,0.0,5.0,83,0.00,,CLR,0.00,VWS V14.00,2013-06-22 13:41:00,
2013-06-22 09:46:00,73.9,68.1,30.14,North,0,0.0,5.0,82,0.00,,CLR,0.00,VWS V14.00,2013-06-22 13:46:00,
2013-06-22 09:51:00,74.3,68.1,30.14,NNE,25,2.0,5.0,81,0.00,,CLR,0.00,VWS V14.00,2013-06-22 13:51:00,
2013-06-22 09:56:00,74.3,68.1,30.14,NNE,14,1.0,6.0,81,0.00,,CLR,0.00,VWS V14.00,2013-06-22 13:56:00,
2013-06-22 10:01:00,74.4,68.2,30.14,NNW,345,1.0,6.0,81,0.00,,CLR,0.00,VWS V14.00,2013-06-22 14:01:00,
2013-06-22 10:06:00,74.6,68.8,30.14,NNW,347,1.0,7.0,82,0.00,,CLR,0.00,VWS V14.00,2013-06-22 14:06:00,
2013-06-22 10:11:00,74.7,68.1,30.14,North,0,2.0,9.0,80,0.00,,CLR,0.00,VWS V14.00,2013-06-22 14:11:00,
2013-06-22 10:16:00,74.8,69.7,30.14,NNE,20,2.0,9.0,84,0.00,,CLR,0.00,VWS V14.00,2013-06-22 14:16:00,
2013-06-22 10:21:00,75.2,69.3,30.14,NNW,339,0.0,9.0,82,0.00,,CLR,0.00,VWS V14.00,2013-06-22 14:21:00,
2013-06-22 10:26:00,75.6,69.4,30.14,NE,51,4.0,9.0,81,0.00,,CLR,0.00,VWS V14.00,2013-06-22 14:26:00,
2013-06-22 10:31:00,75.7,69.5,30.14,NW,319,1.0,4.0,81,0.00,,CLR,0.00,VWS V14.00,2013-06-22 14:31:00,
2013-06-22 10:36:00,75.8,70.3,30.14,North,0,0.0,10.0,83,0.00,,CLR,0.00,VWS V14.00,2013-06-22 14:36:00,
2013-06-22 10:41:00,75.9,70.0,30.14,North,0,0.0,10.0,82,0.00,,CLR,0.00,VWS V14.00,2013-06-22 14:41:00,
2013-06-22 10:46:00,76.2,69.2,30.14,NNW,346,3.0,10.0,79,0.00,,CLR,0.00,VWS V14.00,2013-06-22 14:46:00,
2013-06-22 10:51:00,76.2,68.8,30.14,North,4,5.0,10.0,78,0.00,,CLR,0.00,VWS V14.00,2013-06-22 14:51:00,
2013-06-22 10:56:00,75.9,68.9,30.14,NNE,12,0.0,10.0,79,0.00,,CLR,0.00,VWS V14.00,2013-06-22 14:56:00,
2013-06-22 11:01:00,76.4,70.1,30.14,North,349,0.0,4.0,81,0.00,,CLR,0.00,VWS V14.00,2013-06-22 15:01:00,
2013-06-22 11:06:00,76.8,68.7,30.14,North,359,5.0,5.0,76,0.00,,CLR,0.00,VWS V14.00,2013-06-22 15:06:00,
2013-06-22 11:11:00,76.9,69.2,30.14,North,350,1.0,6.0,77,0.00,,CLR,0.00,VWS V14.00,2013-06-22 15:11:00,
2013-06-22 11:16:00,76.8,69.1,30.14,NNW,338,1.0,6.0,77,0.00,,CLR,0.00,VWS V14.00,2013-06-22 15:16:00,
2013-06-22 11:21:00,76.9,69.9,30.14,NNE,30,4.0,6.0,79,0.00,,CLR,0.00,VWS V14.00,2013-06-22 15:21:00,
2013-06-22 11:26:00,77.5,69.7,30.14,North,1,2.0,6.0,77,0.00,,CLR,0.00,VWS V14.00,2013-06-22 15:26:00,
2013-06-22 11:31:00,78.0,69.4,30.14,North,0,0.0,3.0,75,0.00,,CLR,0.00,VWS V14.00,2013-06-22 15:31:00,
2013-06-22 11:36:00,78.7,69.7,30.14,East,89,1.0,3.0,74,0.00,,CLR,0.00,VWS V14.00,2013-06-22 15:36:00,
2013-06-22 11:41:00,79.3,69.9,30.14,North,0,0.0,4.0,73,0.00,,CLR,0.00,VWS V14.00,2013-06-22 15:41:00,
2013-06-22 11:46:00,80.0,71.0,30.13,North,5,0.0,4.0,74,0.00,,CLR,0.00,VWS V14.00,2013-06-22 15:46:00,
2013-06-22 11:51:00,80.1,70.7,30.13,North,352,0.0,7.0,73,0.00,,CLR,0.00,VWS V14.00,2013-06-22 15:51:00,
2013-06-22 11:56:00,79.9,69.7,30.13,NNE,20,1.0,7.0,71,0.00,,CLR,0.00,VWS V14.00,2013-06-22 15:56:00,
2013-06-22 12:01:00,79.7,69.5,30.13,North,11,2.0,4.0,71,0.00,,CLR,0.00,VWS V14.00,2013-06-22 16:01:00,
2013-06-22 12:06:00,79.7,69.5,30.13,North,3,1.0,4.0,71,0.00,,CLR,0.00,VWS V14.00,2013-06-22 16:06:00,
2013-06-22 12:11:00,79.8,68.7,30.13,North,359,2.0,5.0,69,0.00,,CLR,0.00,VWS V14.00,2013-06-22 16:11:00,
2013-06-22 12:16:00,79.8,69.2,30.13,North,357,1.0,5.0,70,0.00,,CLR,0.00,VWS V14.00,2013-06-22 16:16:00,
2013-06-22 12:21:00,79.6,69.0,30.13,NNE,30,0.0,6.0,70,0.00,,CLR,0.00,VWS V14.00,2013-06-22 16:21:00,
2013-06-22 12:26:00,79.8,69.2,30.13,SW,231,0.0,6.0,70,0.00,,CLR,0.00,VWS V14.00,2013-06-22 16:26:00,
2013-06-22 12:31:00,80.0,69.3,30.13,NNW,327,0.0,4.0,70,0.00,,CLR,0.00,VWS V14.00,2013-06-22 16:31:00,
2013-06-22 12:36:00,80.2,69.9,30.13,North,350,3.0,4.0,71,0.00,,CLR,0.00,VWS V14.00,2013-06-22 16:36:00,
2013-06-22 12:41:00,80.4,69.3,30.13,North,0,0.0,4.0,69,0.00,,CLR,0.00,VWS V14.00,2013-06-22 16:41:00,
2013-06-22 12:46:00,80.9,70.2,30.12,ENE,62,0.0,4.0,70,0.00,,CLR,0.00,VWS V14.00,2013-06-22 16:46:00,
2013-06-22 12:51:00,81.3,68.9,30.12,East,85,0.0,4.0,66,0.00,,CLR,0.00,VWS V14.00,2013-06-22 16:51:00,
2013-06-22 12:56:00,81.1,70.0,30.12,NNW,329,2.0,4.0,69,0.00,,CLR,0.00,VWS V14.00,2013-06-22 16:56:00,
2013-06-22 13:01:00,80.8,70.1,30.11,North,357,2.0,3.0,70,0.00,,CLR,0.00,VWS V14.00,2013-06-22 17:01:00,
2013-06-22 13:06:00,80.8,69.7,30.11,SE,136,0.0,5.0,69,0.00,,CLR,0.00,VWS V14.00,2013-06-22 17:06:00,
2013-06-22 13:11:00,80.9,70.6,30.11,NNE,31,0.0,5.0,71,0.00,,CLR,0.00,VWS V14.00,2013-06-22 17:11:00,
2013-06-22 13:16:00,81.5,70.8,30.12,NE,34,0.0,5.0,70,0.00,,CLR,0.00,VWS V14.00,2013-06-22 17:16:00,
2013-06-22 13:21:00,82.1,69.2,30.12,NE,51,0.0,5.0,65,0.00,,CLR,0.00,VWS V14.00,2013-06-22 17:21:00,
2013-06-22 13:26:00,82.5,68.6,30.12,NE,51,0.0,5.0,63,0.00,,CLR,0.00,VWS V14.00,2013-06-22 17:26:00,
2013-06-22 13:31:00,82.5,69.6,30.12,NE,44,0.0,1.0,65,0.00,,CLR,0.00,VWS V14.00,2013-06-22 17:31:00,
2013-06-22 13:36:00,82.1,69.6,30.12,NNW,346,1.0,3.0,66,0.00,,CLR,0.00,VWS V14.00,2013-06-22 17:36:00,
2013-06-22 13:41:00,81.2,70.5,30.12,NNW,345,0.0,3.0,70,0.00,,CLR,0.00,VWS V14.00,2013-06-22 17:41:00,
2013-06-22 13:46:00,80.8,70.5,30.11,NNW,345,0.0,3.0,71,0.00,,CLR,0.00,VWS V14.00,2013-06-22 17:46:00,
2013-06-22 13:51:00,80.9,69.8,30.11,NNW,346,0.0,3.0,69,0.00,,CLR,0.00,VWS V14.00,2013-06-22 17:51:00,
2013-06-22 13:56:00,81.5,69.5,30.11,NNW,345,0.0,3.0,67,0.00,,CLR,0.00,VWS V14.00,2013-06-22 17:56:00,
2013-06-22 14:01:00,81.5,69.5,30.11,NNW,345,0.0,0.0,67,0.00,,CLR,0.00,VWS V14.00,2013-06-22 18:01:00,
2013-06-22 14:06:00,81.9,71.2,30.11,NNW,345,0.0,1.0,70,0.00,,CLR,0.00,VWS V14.00,2013-06-22 18:06:00,
2013-06-22 14:11:00,82.4,69.9,30.11,NNW,348,0.0,4.0,66,0.00,,CLR,0.00,VWS V14.00,2013-06-22 18:11:00,
2013-06-22 14:16:00,82.6,71.4,30.11,NNE,17,0.0,4.0,69,0.00,,CLR,0.00,VWS V14.00,2013-06-22 18:16:00,
2013-06-22 14:21:00,82.7,69.3,30.11,NNE,16,0.0,4.0,64,0.00,,CLR,0.00,VWS V14.00,2013-06-22 18:21:00,
2013-06-22 14:26:00,83.2,71.1,30.11,NNE,16,0.0,4.0,67,0.00,,CLR,0.00,VWS V14.00,2013-06-22 18:26:00,
2013-06-22 14:31:00,83.6,70.1,30.10,NE,39,1.0,3.0,64,0.00,,CLR,0.00,VWS V14.00,2013-06-22 18:31:00,
2013-06-22 14:36:00,83.3,69.4,30.10,North,6,0.0,4.0,63,0.00,,CLR,0.00,VWS V14.00,2013-06-22 18:36:00,
2013-06-22 14:41:00,82.1,69.6,30.10,North,6,0.0,4.0,66,0.00,,CLR,0.00,VWS V14.00,2013-06-22 18:41:00,
2013-06-22 14:46:00,81.7,69.7,30.10,North,359,0.0,4.0,67,0.00,,CLR,0.00,VWS V14.00,2013-06-22 18:46:00,
2013-06-22 14:51:00,82.0,68.2,30.10,North,359,0.0,4.0,63,0.00,,CLR,0.00,VWS V14.00,2013-06-22 18:51:00,
2013-06-22 14:56:00,82.4,70.3,30.10,North,359,1.0,4.0,67,0.00,,CLR,0.00,VWS V14.00,2013-06-22 18:56:00,
2013-06-22 15:01:00,82.6,70.5,30.09,North,358,0.0,4.0,67,0.00,,CLR,0.00,VWS V14.00,2013-06-22 19:01:00,
2013-06-22 15:06:00,83.1,70.6,30.09,North,5,1.0,4.0,66,0.00,,CLR,0.00,VWS V14.00,2013-06-22 19:06:00,
2013-06-22 15:11:00,83.5,70.5,30.09,North,5,1.0,5.0,65,0.00,,CLR,0.00,VWS V14.00,2013-06-22 19:11:00,
2013-06-22 15:16:00,83.7,70.7,30.08,North,1,1.0,5.0,65,0.00,,CLR,0.00,VWS V14.00,2013-06-22 19:16:00,
2013-06-22 15:21:00,83.6,70.6,30.08,North,0,0.0,5.0,65,0.00,,CLR,0.00,VWS V14.00,2013-06-22 19:21:00,
2013-06-22 15:26:00,83.6,67.8,30.08,North,2,0.0,5.0,59,0.00,,CLR,0.00,VWS V14.00,2013-06-22 19:26:00,
2013-06-22 15:31:00,83.8,69.4,30.08,North,2,0.0,0.0,62,0.00,,CLR,0.00,VWS V14.00,2013-06-22 19:31:00,
2013-06-22 15:36:00,83.8,69.4,30.08,North,1,0.0,3.0,62,0.00,,CLR,0.00,VWS V14.00,2013-06-22 19:36:00,
2013-06-22 15:41:00,83.7,69.3,30.08,North,7,0.0,4.0,62,0.00,,CLR,0.00,VWS V14.00,2013-06-22 19:41:00,
2013-06-22 15:46:00,83.7,70.2,30.08,North,7,0.0,4.0,64,0.00,,CLR,0.00,VWS V14.00,2013-06-22 19:46:00,
2013-06-22 15:51:00,83.4,68.6,30.08,North,1,2.0,5.0,61,0.00,,CLR,0.00,VWS V14.00,2013-06-22 19:51:00,
2013-06-22 15:56:00,83.2,69.3,30.08,North,1,3.0,5.0,63,0.00,,CLR,0.00,VWS V14.00,2013-06-22 19:56:00,
2013-06-22 16:01:00,83.2,68.8,30.07,North,0,0.0,4.0,62,0.00,,CLR,0.00,VWS V14.00,2013-06-22 20:01:00,
2013-06-22 16:06:00,83.3,70.3,30.07,North,0,0.0,4.0,65,0.00,,CLR,0.00,VWS V14.00,2013-06-22 20:06:00,
2013-06-22 16:11:00,83.4,69.9,30.07,North,1,0.0,4.0,64,0.00,,CLR,0.00,VWS V14.00,2013-06-22 20:11:00,
2013-06-22 16:16:00,83.1,71.0,30.06,North,1,0.0,4.0,67,0.00,,CLR,0.00,VWS V14.00,2013-06-22 20:16:00,
2013-06-22 16:21:00,81.9,70.7,30.06,North,1,0.0,4.0,69,0.00,,CLR,0.00,VWS V14.00,2013-06-22 20:21:00,
2013-06-22 16:26:00,80.9,71.0,30.06,North,1,0.0,4.0,72,0.00,,CLR,0.00,VWS V14.00,2013-06-22 20:26:00,
2013-06-22 16:31:00,80.6,71.9,30.05,North,0,0.0,0.0,75,0.00,,CLR,0.00,VWS V14.00,2013-06-22 20:31:00,
2013-06-22 16:36:00,80.9,68.9,30.05,North,1,0.0,0.0,67,0.00,,CLR,0.00,VWS V14.00,2013-06-22 20:36:00,
2013-06-22 16:41:00,81.7,71.0,30.05,North,1,2.0,4.0,70,0.00,,CLR,0.00,VWS V14.00,2013-06-22 20:41:00,
2013-06-22 16:46:00,82.3,69.8,30.05,NE,46,1.0,6.0,66,0.00,,CLR,0.00,VWS V14.00,2013-06-22 20:46:00,
2013-06-22 16:51:00,82.5,68.6,30.05,NNE,15,0.0,6.0,63,0.00,,CLR,0.00,VWS V14.00,2013-06-22 20:51:00,
2013-06-22 16:56:00,82.7,69.3,30.05,NNE,19,0.0,6.0,64,0.00,,CLR,0.00,VWS V14.00,2013-06-22 20:56:00,
2013-06-22 17:01:00,82.8,68.9,30.05,NNE,18,0.0,1.0,63,0.00,,CLR,0.00,VWS V14.00,2013-06-22 21:01:00,
2013-06-22 17:06:00,82.9,70.4,30.05,NNE,19,0.0,1.0,66,0.00,,CLR,0.00,VWS V14.00,2013-06-22 21:06:00,
2013-06-22 17:11:00,82.9,68.6,30.05,NNE,19,0.0,1.0,62,0.00,,CLR,0.00,VWS V14.00,2013-06-22 21:11:00,
2013-06-22 17:16:00,83.0,69.6,30.04,NNE,18,0.0,1.0,64,0.00,,CLR,0.00,VWS V14.00,2013-06-22 21:16:00,
2013-06-22 17:21:00,83.2,68.4,30.04,NNE,19,0.0,2.0,61,0.00,,CLR,0.00,VWS V14.00,2013-06-22 21:21:00,
2013-06-22 17:26:00,83.2,70.7,30.04,NNE,19,0.0,2.0,66,0.00,,CLR,0.00,VWS V14.00,2013-06-22 21:26:00,
2013-06-22 17:31:00,83.0,67.7,30.04,NNE,18,0.0,1.0,60,0.00,,CLR,0.00,VWS V14.00,2013-06-22 21:31:00,
2013-06-22 17:36:00,82.9,70.4,30.04,NNE,20,0.0,4.0,66,0.00,,CLR,0.00,VWS V14.00,2013-06-22 21:36:00,
2013-06-22 17:41:00,82.9,68.6,30.04,NNE,20,0.0,4.0,62,0.00,,CLR,0.00,VWS V14.00,2013-06-22 21:41:00,
2013-06-22 17:46:00,82.9,67.6,30.03,NNE,20,0.0,4.0,60,0.00,,CLR,0.00,VWS V14.00,2013-06-22 21:46:00,
2013-06-22 17:51:00,82.8,68.0,30.03,NNE,20,0.0,4.0,61,0.00,,CLR,0.00,VWS V14.00,2013-06-22 21:51:00,
2013-06-22 17:56:00,82.8,68.9,30.03,NNE,20,0.0,4.0,63,0.00,,CLR,0.00,VWS V14.00,2013-06-22 21:56:00,
2013-06-22 18:01:00,82.9,69.0,30.03,NNE,20,0.0,0.0,63,0.00,,CLR,0.00,VWS V14.00,2013-06-22 22:01:00,
2013-06-22 18:06:00,82.9,68.1,30.03,NNE,20,0.0,1.0,61,0.00,,CLR,0.00,VWS V14.00,2013-06-22 22:06:00,
2013-06-22 18:11:00,82.3,68.9,30.03,NNE,22,0.0,1.0,64,0.00,,CLR,0.00,VWS V14.00,2013-06-22 22:11:00,
2013-06-22 18:16:00,82.0,68.2,30.03,NNE,28,0.0,1.0,63,0.00,,CLR,0.00,VWS V14.00,2013-06-22 22:16:00,
2013-06-22 18:21:00,81.9,69.0,30.03,NNE,29,0.0,1.0,65,0.00,,CLR,0.00,VWS V14.00,2013-06-22 22:21:00,
2013-06-22 18:26:00,81.8,68.9,30.03,NNE,29,0.0,1.0,65,0.00,,CLR,0.00,VWS V14.00,2013-06-22 22:26:00,
2013-06-22 18:31:00,81.7,69.7,30.03,NNE,29,0.0,0.0,67,0.00,,CLR,0.00,VWS V14.00,2013-06-22 22:31:00,
2013-06-22 18:36:00,81.8,68.9,30.03,NNE,28,0.0,0.0,65,0.00,,CLR,0.00,VWS V14.00,2013-06-22 22:36:00,
2013-06-22 18:41:00,81.8,68.0,30.03,East,84,0.0,1.0,63,0.00,,CLR,0.00,VWS V14.00,2013-06-22 22:41:00,
2013-06-22 18:46:00,81.6,68.7,30.03,East,85,0.0,1.0,65,0.00,,CLR,0.00,VWS V14.00,2013-06-22 22:46:00,
2013-06-22 18:51:00,81.5,69.1,30.03,East,85,0.0,1.0,66,0.00,,CLR,0.00,VWS V14.00,2013-06-22 22:51:00,
2013-06-22 18:56:00,81.5,68.6,30.03,East,85,0.0,1.0,65,0.00,,CLR,0.00,VWS V14.00,2013-06-22 22:56:00,
2013-06-22 19:01:00,81.5,69.1,30.04,East,85,0.0,0.0,66,0.00,,CLR,0.00,VWS V14.00,2013-06-22 23:01:00,
2013-06-22 19:06:00,81.5,69.1,30.04,East,85,0.0,0.0,66,0.00,,CLR,0.00,VWS V14.00,2013-06-22 23:06:00,
2013-06-22 19:11:00,81.4,68.1,30.04,East,85,0.0,0.0,64,0.00,,CLR,0.00,VWS V14.00,2013-06-22 23:11:00,
2013-06-22 19:16:00,81.3,68.0,30.03,East,84,0.0,0.0,64,0.00,,CLR,0.00,VWS V14.00,2013-06-22 23:16:00,
2013-06-22 19:21:00,81.0,68.1,30.03,East,85,0.0,0.0,65,0.00,,CLR,0.00,VWS V14.00,2013-06-22 23:21:00,
2013-06-22 19:26:00,80.7,68.3,30.03,East,97,0.0,0.0,66,0.00,,CLR,0.00,VWS V14.00,2013-06-22 23:26:00,
2013-06-22 19:31:00,80.4,68.4,30.03,ESE,111,0.0,0.0,67,0.00,,CLR,0.00,VWS V14.00,2013-06-22 23:31:00,
2013-06-22 19:36:00,80.0,67.6,30.03,ENE,65,0.0,1.0,66,0.00,,CLR,0.00,VWS V14.00,2013-06-22 23:36:00,
2013-06-22 19:41:00,79.8,67.9,30.03,ENE,65,0.0,1.0,67,0.00,,CLR,0.00,VWS V14.00,2013-06-22 23:41:00,
2013-06-22 19:46:00,79.6,68.1,30.03,ENE,65,0.0,1.0,68,0.00,,CLR,0.00,VWS V14.00,2013-06-22 23:46:00,
2013-06-22 19:51:00,79.3,67.8,30.03,ENE,65,0.0,1.0,68,0.00,,CLR,0.00,VWS V14.00,2013-06-22 23:51:00,
2013-06-22 19:56:00,79.1,67.6,30.03,ENE,65,0.0,1.0,68,0.00,,CLR,0.00,VWS V14.00,2013-06-22 23:56:00,
2013-06-22 20:01:00,78.9,67.9,30.03,ENE,65,0.0,0.0,69,0.00,,CLR,0.00,VWS V14.00,2013-06-23 00:01:00,
2013-06-22 20:06:00,78.7,67.7,30.03,ENE,65,0.0,0.0,69,0.00,,CLR,0.00,VWS V14.00,2013-06-23 00:06:00,
2013-06-22 20:11:00,78.7,68.1,30.03,ENE,65,0.0,0.0,70,0.00,,CLR,0.00,VWS V14.00,2013-06-23 00:11:00,
2013-06-22 20:16:00,78.5,67.9,30.03,ENE,62,0.0,0.0,70,0.00,,CLR,0.00,VWS V14.00,2013-06-23 00:16:00,
2013-06-22 20:21:00,78.2,68.0,30.03,ENE,59,0.0,0.0,71,0.00,,CLR,0.00,VWS V14.00,2013-06-23 00:21:00,
2013-06-22 20:26:00,78.0,67.8,30.03,ENE,59,0.0,0.0,71,0.00,,CLR,0.00,VWS V14.00,2013-06-23 00:26:00,
2013-06-22 20:31:00,77.7,68.0,30.03,ENE,59,0.0,0.0,72,0.00,,CLR,0.00,VWS V14.00,2013-06-23 00:31:00,
2013-06-22 20:36:00,77.3,67.6,30.03,ENE,58,0.0,0.0,72,0.00,,CLR,0.00,VWS V14.00,2013-06-23 00:36:00,
2013-06-22 20:41:00,77.0,67.3,30.03,ENE,59,0.0,0.0,72,0.00,,CLR,0.00,VWS V14.00,2013-06-23 00:41:00,
2013-06-22 20:46:00,76.6,67.7,30.03,ENE,58,0.0,0.0,74,0.00,,CLR,0.00,VWS V14.00,2013-06-23 00:46:00,
2013-06-22 20:51:00,76.3,67.8,30.03,ENE,59,0.0,0.0,75,0.00,,CLR,0.00,VWS V14.00,2013-06-23 00:51:00,
2013-06-22 20:56:00,75.8,67.7,30.03,ENE,59,0.0,0.0,76,0.00,,CLR,0.00,VWS V14.00,2013-06-23 00:56:00,
2013-06-22 21:01:00,75.3,68.0,30.03,ENE,59,0.0,0.0,78,0.00,,CLR,0.00,VWS V14.00,2013-06-23 01:01:00,
2013-06-22 21:06:00,74.9,68.7,30.03,ENE,59,0.0,0.0,81,0.00,,CLR,0.00,VWS V14.00,2013-06-23 01:06:00,
2013-06-22 21:11:00,74.6,68.8,30.03,ENE,59,0.0,0.0,82,0.00,,CLR,0.00,VWS V14.00,2013-06-23 01:11:00,
2013-06-22 21:16:00,74.3,69.2,30.04,ENE,59,0.0,0.0,84,0.00,,CLR,0.00,VWS V14.00,2013-06-23 01:16:00,
2013-06-22 21:21:00,74.1,69.3,30.04,ENE,59,0.0,0.0,85,0.00,,CLR,0.00,VWS V14.00,2013-06-23 01:21:00,
2013-06-22 21:26:00,73.8,69.0,30.04,ENE,59,0.0,0.0,85,0.00,,CLR,0.00,VWS V14.00,2013-06-23 01:26:00,
2013-06-22 21:31:00,73.6,68.8,30.05,ENE,59,0.0,0.0,85,0.00,,CLR,0.00,VWS V14.00,2013-06-23 01:31:00,
2013-06-22 21:36:00,73.4,69.0,30.05,ENE,59,0.0,0.0,86,0.00,,CLR,0.00,VWS V14.00,2013-06-23 01:36:00,
2013-06-22 21:41:00,73.1,68.7,30.05,ENE,59,0.0,0.0,86,0.00,,CLR,0.00,VWS V14.00,2013-06-23 01:41:00,
2013-06-22 21:46:00,72.9,68.5,30.06,ENE,59,0.0,0.0,86,0.00,,CLR,0.00,VWS V14.00,2013-06-23 01:46:00,
2013-06-22 21:51:00,72.7,68.6,30.06,ENE,59,0.0,0.0,87,0.00,,CLR,0.00,VWS V14.00,2013-06-23 01:51:00,
2013-06-22 21:56:00,72.6,68.5,30.06,ENE,59,0.0,0.0,87,0.00,,CLR,0.00,VWS V14.00,2013-06-23 01:56:00,
2013-06-22 22:01:00,72.5,68.4,30.07,ENE,59,0.0,0.0,87,0.00,,CLR,0.00,VWS V14.00,2013-06-23 02:01:00,
2013-06-22 22:06:00,72.4,68.3,30.07,ENE,59,0.0,0.0,87,0.00,,CLR,0.00,VWS V14.00,2013-06-23 02:06:00,
2013-06-22 22:11:00,72.2,68.4,30.07,ENE,59,0.0,0.0,88,0.00,,CLR,0.00,VWS V14.00,2013-06-23 02:11:00,
2013-06-22 22:16:00,72.0,68.3,30.07,ENE,59,0.0,0.0,88,0.00,,CLR,0.00,VWS V14.00,2013-06-23 02:16:00,
2013-06-22 22:21:00,71.8,68.4,30.07,ENE,59,0.0,0.0,89,0.00,,CLR,0.00,VWS V14.00,2013-06-23 02:21:00,
2013-06-22 22:26:00,71.6,68.2,30.07,ENE,59,0.0,0.0,89,0.00,,CLR,0.00,VWS V14.00,2013-06-23 02:26:00,
2013-06-22 22:31:00,71.3,68.2,30.07,ENE,59,0.0,0.0,90,0.00,,CLR,0.00,VWS V14.00,2013-06-23 02:31:00,
2013-06-22 22:36:00,71.2,68.1,30.07,ENE,59,0.0,0.0,90,0.00,,CLR,0.00,VWS V14.00,2013-06-23 02:36:00,
2013-06-22 22:41:00,71.0,68.2,30.07,ENE,59,0.0,0.0,91,0.00,,CLR,0.00,VWS V14.00,2013-06-23 02:41:00,
2013-06-22 22:46:00,70.9,67.8,30.07,ENE,59,0.0,0.0,90,0.00,,CLR,0.00,VWS V14.00,2013-06-23 02:46:00,
2013-06-22 22:51:00,70.7,67.6,30.07,ENE,59,0.0,0.0,90,0.00,,CLR,0.00,VWS V14.00,2013-06-23 02:51:00,
2013-06-22 22:56:00,70.6,67.8,30.07,ENE,59,0.0,0.0,91,0.00,,CLR,0.00,VWS V14.00,2013-06-23 02:56:00,
2013-06-22 23:01:00,70.5,67.8,30.07,ENE,59,0.0,0.0,91,0.00,,CLR,0.00,VWS V14.00,2013-06-23 03:01:00,
2013-06-22 23:06:00,70.5,68.1,30.07,ENE,59,0.0,0.0,92,0.00,,CLR,0.00,VWS V14.00,2013-06-23 03:06:00,
2013-06-22 23:11:00,70.4,68.0,30.07,ENE,59,0.0,0.0,92,0.00,,CLR,0.00,VWS V14.00,2013-06-23 03:11:00,
2013-06-22 23:16:00,70.2,67.8,30.08,ENE,59,0.0,0.0,92,0.00,,CLR,0.00,VWS V14.00,2013-06-23 03:16:00,
2013-06-22 23:21:00,69.9,67.5,30.08,ENE,59,0.0,0.0,92,0.00,,CLR,0.00,VWS V14.00,2013-06-23 03:21:00,
2013-06-22 23:26:00,69.7,67.6,30.08,ENE,59,0.0,0.0,93,0.00,,CLR,0.00,VWS V14.00,2013-06-23 03:26:00,
2013-06-22 23:31:00,69.5,67.4,30.08,ENE,59,0.0,0.0,93,0.00,,CLR,0.00,VWS V14.00,2013-06-23 03:31:00,
2013-06-22 23:36:00,69.3,67.2,30.08,NNW,344,0.0,1.0,93,0.00,,CLR,0.00,VWS V14.00,2013-06-23 03:36:00,
2013-06-22 23:41:00,69.2,67.1,30.08,NNW,344,0.0,1.0,93,0.00,,CLR,0.00,VWS V14.00,2013-06-23 03:41:00,
2013-06-22 23:46:00,69.0,66.9,30.08,NNW,344,0.0,1.0,93,0.00,,CLR,0.00,VWS V14.00,2013-06-23 03:46:00,
2013-06-22 23:51:00,68.9,67.1,30.08,NNW,343,0.0,1.0,94,0.00,,CLR,0.00,VWS V14.00,2013-06-23 03:51:00,
2013-06-22 23:56:00,68.8,67.0,30.08,NNW,344,0.0,1.0,94,0.00,,CLR,0.00,VWS V14.00,2013-06-23 03:56:00,